Theta_e
327 324 326 328 330 329 327 325 322 324 324 321 317 314 312 311 309 309 309 309 309 310 310 309 307 306 306 305 305 305 305 305
327 329 328 329 330 329 327 326 325 325 322 321 318 317 314 310 309 308 308 307 307 307 307 307 307 307 307 306 305 304 304 304
328 329 329 329 328 327 327 326 325 321 320 318 318 317 313 309 308 307 307 306 306 306 307 307 306 306 306 306 304 302 302 302
331 330 330 330 329 328 327 324 319 317 316 315 313 312 311 311 309 308 307 306 306 305 306 305 305 305 304 304 303 302 301 300
331 331 331 330 329 326 321 317 315 312 311 312 312 311 311 308 307 307 307 306 306 305 305 304 304 303 302 303 301 300 298 298
327 325 324 320 317 316 314 312 310 310 310 310 310 309 307 307 306 305 305 304 304 303 303 302 302 301 302 302 300 298 297 296
319 318 315 314 313 312 311 310 309 308 308 307 307 306 304 302 299 299 297 296 296 297 298 301 302 302 302 300 297 297 295 294
316 314 313 313 313 312 310 309 307 307 306 304 301 299 298 297 296 295 295 295 295 295 296 298 301 302 299 297 296 296 294 293
317 315 315 313 312 310 309 308 307 304 301 298 297 297 297 296 296 296 295 295 296 297 299 301 301 299 297 297 297 295 293 292
318 316 314 312 310 309 309 305 302 299 299 298 298 297 297 297 296 296 295 295 296 297 300 300 299 297 297 296 295 294 293 291
318 314 312 310 310 307 304 302 301 298 298 298 297 297 297 297 296 295 294 294 295 297 298 299 297 297 296 295 293 292 291 290
317 313 311 310 308 304 302 301 299 298 298 298 298 297 297 296 295 294 294 294 294 295 297 297 296 295 294 294 292 291 290 290
316 312 311 309 305 302 301 300 299 298 297 297 297 297 296 296 295 294 294 294 294 294 295 295 295 294 294 292 291 291 291 290
313 311 309 306 303 301 300 300 299 297 296 297 297 296 296 295 295 294 294 294 294 294 294 294 293 292 291 291 291 291 290 289
312 309 306 304 302 301 302 299 298 296 296 296 296 296 296 295 294 294 293 293 294 294 294 294 293 291 290 290 290 290 289 289
310 308 306 304 302 302 301 299 297 296 296 296 296 295 295 295 294 293 293 293 294 294 293 291 291 290 289 289 290 289 289 287
310 308 306 304 302 302 300 298 297 296 296 296 295 295 295 295 294 293 293 293 293 294 293 292 292 289 288 286 286 286 286 285
310 309 306 303 301 301 299 297 296 295 295 295 294 294 294 294 293 293 293 293 293 293 293 292 291 290 285 284 283 284 285 284
311 309 306 301 301 300 298 296 295 295 294 294 294 294 293 293 293 293 293 293 292 291 291 291 291 287 283 282 282 284 283 282
Wind_Speed
10 12 14 18 19 19 18 15 13 7 2 2 7 7 5 6 5 5 4 3 3 2 3 4 5 7 8 9 10 12 13 14
11 12 16 19 20 20 19 15 9 5 5 7 6 3 3 4 4 5 4 3 4 4 4 6 8 10 11 11 13 16 16 14
13 15 18 20 21 18 14 12 10 9 8 6 2 2 4 5 4 3 4 5 5 7 9 11 12 15 15 13 11 12 13 10
13 17 18 18 18 16 14 13 12 8 4 3 4 5 4 1 3 4 5 7 9 10 11 12 13 14 16 11 8 8 11 12
15 18 17 17 15 14 16 15 9 6 5 7 8 6 4 4 5 6 8 10 12 14 15 15 15 15 14 10 8 6 7 12
14 17 18 18 16 16 15 14 11 10 11 10 8 7 6 5 7 11 13 15 16 18 18 18 18 15 12 8 6 6 10 11
16 18 17 16 14 14 14 15 14 13 13 12 11 9 8 9 11 13 15 18 19 19 19 19 17 13 9 6 4 7 11 12
15 17 18 16 14 14 15 15 15 12 12 11 11 10 8 8 11 13 16 17 18 19 19 17 13 9 6 4 4 8 10 10
16 19 17 17 16 15 16 15 14 12 11 11 9 7 7 8 10 12 14 16 17 18 16 10 6 5 3 6 12 9 9 10
16 15 16 17 18 17 16 15 14 11 9 8 6 5 5 7 10 13 14 15 16 15 11 5 5 4 9 11 11 9 8 11
14 16 17 18 19 17 16 15 14 12 9 6 4 3 4 8 12 14 14 15 15 14 9 7 7 12 12 13 11 9 9 13
15 17 18 19 18 17 16 14 13 12 9 5 3 2 5 8 11 13 14 14 14 12 10 10 13 16 17 15 11 11 11 14
16 19 20 20 19 18 16 15 13 10 8 6 2 2 4 7 11 13 13 14 13 12 11 13 17 19 15 9 11 13 14 16
16 20 21 21 20 18 16 14 11 9 7 4 1 2 4 8 11 13 14 14 13 12 13 13 13 11 11 11 12 13 13 15
16 17 21 21 21 18 15 13 11 8 5 4 5 5 6 8 11 13 14 13 12 11 11 13 12 11 10 11 11 11 12 15
18 17 20 22 21 17 13 13 10 8 6 6 7 7 8 9 11 14 15 13 12 11 10 9 9 8 6 5 9 12 15 15
18 18 22 22 21 17 15 12 10 8 7 8 9 9 10 11 13 14 15 14 13 13 14 11 9 6 8 7 7 11 13 15
19 19 21 20 21 16 15 12 10 9 8 9 10 11 11 13 13 14 15 13 13 14 15 11 10 6 7 8 10 10 13 13
17 18 18 19 19 15 13 12 10 8 8 10 10 11 13 14 14 15 15 13 13 12 12 10 8 6 6 8 12 10 12 11
Wind_Direction
164 167 166 169 165 164 162 165 176 185 301 127 125 119 86 79 87 76 67 50 46 20 0 2 341 320 319 324 322 315 307 303
154 150 152 157 162 168 174 175 176 194 151 135 151 151 113 92 86 72 55 48 37 25 350 343 333 318 314 309 308 307 307 312
151 153 156 162 164 169 172 171 171 155 146 131 118 165 138 135 104 64 48 33 7 341 332 322 316 310 308 298 307 312 306 318
155 154 157 158 161 163 162 154 145 134 126 140 127 111 105 69 5 5 4 357 340 328 318 313 312 309 305 295 293 310 311 309
143 148 150 156 153 153 146 143 135 108 117 104 85 67 51 31 4 342 328 324 321 316 309 304 304 302 295 286 289 303 307 315
151 150 149 143 140 140 140 135 122 118 105 101 92 79 57 19 353 334 322 318 312 309 305 297 295 293 280 268 273 299 311 321
149 146 147 144 143 139 140 135 126 116 104 91 84 69 41 13 353 338 329 320 315 310 305 299 290 279 256 247 259 309 316 314
160 164 165 159 152 145 140 132 120 111 100 92 80 66 42 11 357 343 334 328 323 319 312 300 281 259 236 245 287 298 292 297
174 174 169 164 155 150 140 133 126 117 105 93 78 60 32 13 355 345 335 328 324 321 314 296 244 229 221 300 291 290 291 291
178 174 176 165 157 152 145 136 126 122 115 98 95 77 44 11 358 346 337 332 329 326 319 272 238 233 295 296 300 289 289 298
176 174 165 162 155 149 146 141 143 141 129 132 133 104 38 11 356 343 337 334 332 327 304 273 246 302 301 303 286 285 292 300
177 170 165 160 156 155 151 156 158 153 144 156 158 88 26 3 346 339 333 328 322 314 298 276 282 299 298 289 277 283 283 298
176 171 168 165 165 164 168 174 169 159 157 176 172 36 359 340 336 332 327 319 313 304 293 287 288 295 292 274 279 290 287 301
176 175 172 171 173 175 178 182 166 169 172 195 244 291 313 321 327 326 322 315 308 301 296 295 295 289 284 279 287 286 284 300
181 180 179 180 180 180 184 176 171 175 197 235 260 275 290 307 315 320 320 311 305 303 295 293 298 292 285 291 299 296 298 305
188 186 184 185 185 184 186 176 175 191 220 254 270 268 275 293 305 317 320 308 299 293 300 301 291 285 276 281 302 297 307 309
192 194 193 193 189 190 184 177 189 204 233 260 270 268 272 288 302 313 313 303 296 291 285 288 281 265 280 291 311 308 309 310
200 199 199 196 193 192 187 189 195 214 244 265 272 268 269 288 295 303 311 306 298 295 289 279 267 245 256 295 318 321 312 314
205 203 202 198 195 195 193 197 205 228 250 271 275 275 278 289 289 293 306 299 299 295 295 271 250 223 269 311 330 319 315 316